Home > Weather > Baton Rouge > Past weeks

Flag for USA Weather for the Past 2 Weeks in Baton Rouge, Louisiana, USA

Now
66 °F

Low clouds.


Feels Like: 66 °F
Forecast: 64 / 78 °F
Wind: 6 mph from Northwest

Location: Baton Rouge Metropolitan - Ryan Field

Current Time: May 3, 2016 at 4:12:14 AM

Latest Report: May 3, 2016 at 2:53 AM


Visibility: 10 mi

Pressure: 29.94 "Hg

Humidity: 90%

Dew Point: 63 °F

Location of Baton RougeLocation

Historic Weather in Baton Rouge — Graph

°F

Baton Rouge Temperature Yesterday

Maximum temperature yesterday: 80 °F (at 5:53 PM)
Minimum temperature yesterday: 64 °F (at 3:53 AM)
Average temperature yesterday: 70 °F

High & Low Weather Summary for the Past Weeks

 TemperatureHumidityPressure
High88 °F (Apr 29, 1:53 PM)97% (Apr 20, 4:53 AM)30.21 "Hg (Apr 20, 4:53 AM)
Low56 °F (Apr 24, 4:53 AM)32% (Apr 23, 4:53 PM)29.70 "Hg (Apr 27, 3:53 PM)
Average72 °F76%29.94 "Hg
* Reported Apr 18 2:53 AM — May 3 2:53 AM, Baton Rouge, Weather by CustomWeather, © 2016

Note: Actual official high and low records may vary slightly from our data, if they occured in-between our weather recording intervals... More about our weather records

Advertising

Baton Rouge Weather History for the Previous 24 Hours

Scroll right to see more
 ConditionsComfort  
Time TempWeatherWind HumidityBarometerVisibility
2:53 AM
Tue, May 3
66 °FLow clouds.6 mph90%29.94 "Hg10 mi
1:53 AM67 °FMostly cloudy.5 mph90%29.95 "Hg10 mi
12:53 AM67 °FClear.No wind90%29.96 "Hg10 mi
11:53 PM
Mon, May 2
68 °FClear.3 mph90%29.96 "Hg10 mi
11:02 PM69 °FPartly cloudy.7 mph90%29.99 "Hg10 mi
10:53 PM70 °FOvercast.6 mph87%29.98 "Hg10 mi
9:53 PM70 °FClear.3 mph87%29.98 "Hg10 mi
8:53 PM69 °FClear.3 mph90%29.94 "Hg10 mi
7:53 PM71 °FSunny.3 mph84%29.92 "Hg10 mi
6:53 PM78 °FSunny.5 mph66%29.90 "Hg10 mi
5:53 PM80 °FScattered clouds.N/A58%29.90 "Hg10 mi
4:55 PM78 °FScattered clouds.5 mph62%29.93 "Hg10 mi
3:53 PM77 °FScattered clouds.3 mph66%29.93 "Hg10 mi
2:53 PM77 °FSunny.5 mph66%29.96 "Hg10 mi
1:53 PM77 °FSunny.3 mph64%29.96 "Hg10 mi
12:53 PM72 °FSunny.N/A84%29.96 "Hg10 mi
11:53 AM69 °FSunny.7 mph90%29.98 "Hg10 mi
10:53 AM67 °FLight rain. Mostly cloudy.3 mph93%29.98 "Hg7 mi
10:00 AM67 °FRain. Fog.5 mph90%30.04 "Hg3 mi
8:53 AM67 °FMore clouds than sun.No wind90%29.98 "Hg10 mi
7:53 AM66 °FPartly sunny.5 mph90%29.94 "Hg10 mi
6:53 AM65 °FClear.No wind94%29.95 "Hg10 mi
5:53 AM64 °FClear.5 mph94%29.93 "Hg10 mi
4:53 AM64 °FClear.No wind97%29.94 "Hg10 mi
Weather by CustomWeather, © 2016

See weather overviewHow to use our weather pages